www.pogodaiklimat.ru

Погода и климат >> Архив погоды >> Россия >> Ямало-Ненецкий АО >> Красноселькупск


ПОГОДА в Красноселькупске

  • Прогноз погоды в Красноселькупске
  • Монитор погоды в Красноселькупске

АРХИВ ПОГОДЫ в Красноселькупске

Время (UTC), дата Ветер
(напр.,м/с)
 
Видим.   Явления Облачность Т
(С)
Тd
(С)
f
(%)
Тe
(С)
Тes
(С)
Комфортность P
(гПа)
Po
(гПа)
Тmin
(С)
Tmax
(С)
R
(мм)
R24
(мм)
S
(см)
21 19.03 ЮЗ 2 20 км [диам. изморози 3 мм] 6/0
[Ac trans Ci fib]
-11.4 -13.2 86 -16 -16 1025.4 1022.1
00 20.03 ЮЗ 3 20 км [диам. изморози 3 мм] 9/0
[Ac trans Cc]
-11.5 -13.3 86 -17 -17 1024.4 1021.1
03 20.03 Ю 3 20 км [диам. изморози 3 мм] 10/8 720 м
[Sc Ac As]
-10.4 -12.2 87 -16 -16 1023.8 1020.5 -13.5 80
06 20.03 ЮЗ 4 20 км [диам. изморози 0 мм] 8/0
[Ac trans Ci fib]
-5.7 -9.6 74 -12 -10 1022.5 1019.3
09 20.03 Ю 3 20 км 10/10 1200 м
[Sc]
-3.0 -7.9 69 -8 -8 1020.8 1017.6
12 20.03 Ю 5 20 км 10/10 1230 м
[Sc]
-2.0 -6.9 69 -8 -8 1018.7 1015.6
15 20.03 Ю 5
{10}
20 км 9/9 1000 м
[Sc]
-1.8 -6.4 71 -8 -8 1015.9 1012.8 -1.8
18 20.03 Ю 6-10
{10}
20 км 10/0
[Ac As]
-0.5 -6.2 65 -7 -7 1012.7 1009.6
21 20.03 ЮЗ 6
{11}
10 км снежные кристаллы 10/0
[Ac As]
-1.0 -8.0 59 -7 -7 1010.3 1007.2
00 21.03 ЮЗ 5
{10}
20 км {снег} 10/0
[Ac trans]
-1.9 -8.5 61 -8 -8 1008.2 1005.1
03 21.03 ЮЗ 6
{11}
20 км 10/4 420 м
[Sc Ac As]
-2.6 -8.7 63 -9 -9 1007.6 1004.4 -2.6 0.0 80
06 21.03 ЮЗ 7-10
{12}
2000 м ливневой снег {метель} 10/8 300 м
[Cb cap Ac As]
-3.4 -6.0 82 -11 -11 1007.0 1003.8
09 21.03 ЮЗ 5
{10}
2000 м ливневой снег {метель} 10/8 270 м
[Cb cap Ac As]
-3.0 -5.3 84 -10 -10 1007.5 1004.3
12 21.03 ЮЗ 5 2000 м слаб. ливневой снег 10/8 360 м
[Cb cap Ac As]
-2.9 -5.2 84 -10 -10 1007.8 1004.6
15 21.03 ЮЗ 4 20 км в посл. час ливневой снег {морось} 10/8 270 м
[Cb cap Ac As]
-3.1 -5.2 85 -9 -9 1008.5 1005.3 -2.6 0.4
18 21.03 З 2 20 км {ливн. осадки} 10/10 720 м
[Sc]
-2.9 -4.9 86 -7 -7 1008.7 1005.5
21 21.03 ЮЗ 2 н/о н/о -3.6 -5.3 88 -8 -8 1008.1 1004.9
00 22.03 З 2 н/о н/о -3.6 -5.3 88
03 22.03 ЮЗ 1 20 км 9/9 1380 м
[Sc]
-2.3 -4.8 83 -4 -4 1009.0 1005.9 -4.0 80
06 22.03 ЮЗ 4 20 км 3/0
[Ac trans]
+0.2 -4.6 70 -5 -3 1009.6 1006.5
09 22.03 ЮЗ 3 20 км 8/8
[Sc]
+1.4 -4.0 67 -3 -2 1010.2 1007.1
12 22.03 ЮЗ 2 20 км 9/9 500 м
[Sc Ac trans]
-0.1 -2.3 85 -4 -4 1010.9 1007.8
15 22.03 Ю 2 2000 м слаб. ливневой снег 10/10 360 м
[Cb cap]
-1.4 -3.3 87 -5 -5 1011.5 1008.4 +1.4 0.0
18 22.03 СЗ 4 2000 м слаб. ливневой снег 10/10 270 м
[Cb cap]
-2.8 -4.5 88 -9 -9 1013.5 1010.3
21 22.03 СЗ 2 2000 м слаб. ливневой снег 10/10 210 м
[Cb cap]
-3.5 -5.3 87 -8 -8 1015.1 1011.9
00 23.03 СЗ 3 20 км в посл. час ливневой снег 10/10 330 м
[Cb cap]
-4.7 -7.3 82 -10 -10 1015.7 1012.5
03 23.03 З 1 20 км 10/6 240 м
[Cb cap Ac As]
-5.6 -7.6 86 -8 -8 1016.8 1013.6 -5.7 0.0 80
06 23.03 З 1 20 км 9/8 330 м
[Cb cap Ac trans]
-4.0 -7.7 75 -6 -5 1017.0 1013.8
09 23.03 ЮЗ 2 20 км 9/0
[Ac trans]
-2.5 -7.3 70 -6 -5 1016.7 1013.5
12 23.03 Ю 2 20 км 9/3 600 м
[Sc Ac trans Ci fib]
-2.8 -7.7 69 -7 -6 1016.1 1013.0
15 23.03 Ю 1 20 км 10/8 600 м
[Sc Ac As]
-4.3 -7.0 81 -7 -7 1016.2 1013.0 -1.6
18 23.03 Ю 2 20 км 9/9 660 м
[Sc]
-5.2 -7.3 85 -9 -9 1015.7 1012.5
21 23.03 Ю 1 2000 м слаб. ливневой снег 10/10 300 м
[Cb cap]
-5.6 -6.9 91 -8 -8 1015.0 1011.8
00 24.03 Ю 2 20 км в посл. час ливневой снег {морось} 10/10 300 м
[Cb cap]
-5.5 -7.0 89 -10 -10 1014.5 1011.3
03 24.03 ЮЗ 2 2000 м снежные кристаллы 10/8 450 м
[Sc Ac As]
-4.6 -6.9 84 -9 -9 1014.8 1011.6 -5.6 0.3 81
06 24.03 ЮЗ 1 20 км в посл. час ливневой снег 9/6 360 м
[Sc Ac trans]
-2.9 -6.0 79 -5 -4 1015.6 1012.4
09 24.03 ЮЗ 2 20 км 8/4 450 м
[Sc Ac trans]
-1.3 -5.0 76 -5 -4 1016.0 1012.9
12 24.03 Ю 2 20 км {снег} 8/0
[Ac trans]
-0.5 -4.5 74 -4 -4 1016.7 1013.6
15 24.03 Ю 2 20 км 8/0
[Ac trans]
-1.4 -5.6 73 -5 -5 1017.2 1014.0 +0.5 0.0
18 24.03 Ю 4 10 км слаб. ливневой снег 10/8 360 м
[Cb cap Ac As]
-1.7 -5.0 78 -7 -7 1017.4 1014.3
21 24.03 ЮЗ 3 20 км {ливн. осадки} 10/6 500 м
[Sc Ac As]
-2.9 -6.9 74 -8 -8 1018.4 1015.2
00 25.03 Ю 4 20 км {ливн. осадки} 10/0
[Ac As]
-5.9 -7.9 86 -12 -12 1018.8 1015.6
03 25.03 З 5 20 км 10/9 180 м
[St Ac As]
-5.2 -6.9 88 -12 -12 1019.7 1016.5 -6.8 0.0 79
06 25.03 Ю 6
{10}
20 км 3/0
[Ci fib]
-2.3 -6.8 71 -9 -8 1020.3 1017.1
09 25.03 ЮЗ 6
{10}
20 км 9/9 1000 м
[Sc]
-0.2 -6.6 62 -6 -6 1020.7 1017.5
12 25.03 Ю 4
{10}
20 км 10/0
[Ac As]
+0.2 -5.9 64 -5 -5 1021.3 1018.1
15 25.03 ЮЗ 4 20 км 9/0
[Ac trans Ci fib]
-0.9 -6.2 67 -6 -6 1021.8 1018.6 +0.4
18 25.03 З 4 20 км 10/0
[Ac trans]
-1.5 -6.8 67
21 25.03 ЮЗ 4 20 км 10/0
[Ac trans]
-1.4 -7.0 66 -7 -7 1022.2 1019.0
00 26.03 Ю 4 20 км 8/0
[Ac trans]
-2.2 -6.9 70 -8 -8 1022.8 1019.6
03 26.03 Ю 6 20 км 3/0
[Ci fib]
-1.1 -7.6 61 -8 -7 1023.2 1020.0 -2.5 80
06 26.03 Ю 6 20 км 4/0
[Ci fib]
+1.9 -6.7 53 -4 -2 1022.4 1019.3
09 26.03 ЮЗ 6
{10}
20 км 8/0
[Ci fib]
+4.0 -5.9 48 -1 0 1021.6 1018.5
12 26.03 Ю 5-10
{11}
20 км 9/0
[Ci fib]
+3.7 -5.5 51 -1 -1 1020.5 1017.4
15 26.03 Ю 5-10
{10}
20 км 9/0
[Ci fib]
+2.8 -5.7 54 -2 -2 1019.2 1016.1 +4.2

 

Местоположение метеостанции Красноселькупск (Ямало-Ненецкий АО, Россия): широта 65.70 долгота 82.45 высота над уровнем моря 25 м.

В архиве по умолчанию представлена погода в Красноселькупске за последнюю неделю. Архивные данные за месяц целиком и за предыдущие месяцы, начиная с января 2011 года, Вы можете получить, выбрав интересующий диапазон дат из раскрывающегося списка и нажав кнопку "Ввод!".


*Определитесь, кто Вы:
робот инопланетянин человек

Внимание! Время в таблицах - всемирное. Для получения местного времени необходимо прибавить поправку, которая равна 5 ч.

Смотрите также архив погоды в соседних городах и на ближайших метеорологических станциях:

Погода в Советской Речке (Красноярский край, Россия) (138 км)
Погода в Уренгое (Ямало-Ненецкий АО, Россия) (187 км)
Погода в Тольке (Ямало-Ненецкий АО, Россия) (192 км)
Погода в Курейке (Красноярский край, Россия) (231 км)
Погода в Тарко-Сале (Ямало-Ненецкий АО, Россия) (232 км)
Погода в Туруханске (Красноярский край, Россия) (251 км)
Погода в Тазовском (Ямало-Ненецкий АО, Россия) (256 км)
Погода в Новом Уренгое (Ямало-Ненецкий АО, Россия) (261 км)
Погода в Игарке (Красноярский край, Россия) (268 км)
Погода в Верещагино (Красноярский край, Россия) (287 км)

Пояснения к столбцам:

Ветер - указаны скорость ветра в м/с - средняя за 10 мин, порывы в срок и между сроками (в фигурных скобках) и направление, откуда дует ветер: С - северный, СВ - северо-восточный, В - восточный, ЮВ - юго-восточный, Ю - южный, ЮЗ - юго-западный, З - западный, СЗ - северо-западный.
Видимость - горизонтальная дальность видимости в метрах или километрах. При видимости от 1 до 10 км при отсутствии осадков обычно наблюдается дымка, при ухудшении видимости до 1 км и менее - туман. В сухую погоду видимость может ухудшаться дымом, пылью или мглою.
Явления - указаны атмосферные явления, наблюдавшиеся в срок или в последний час перед сроком; фигурными скобками обозначены явления, наблюдавшиеся между сроками (за 1-3 часа до срока); квадратными скобками обозначены град или гололедные отложения с указанием их диаметра в мм.
Облачность - указаны через наклонную черту общая и нижняя облачность в баллах и высота нижней границы облаков в метрах; квадратными скобками обозначены формы облаков: Ci - перистые, Cs - перисто-слоистые, Cc - перисто-кучевые, Ac - высококучевые, As - высокослоистые, Sc - слоисто-кучевые, Ns - слоисто-дождевые, Cu - кучевые, Cb - кучево-дождевые. Подробнее классификацию облаков см. в Атласе облаков (PDF).
T - Температура воздуха - температура, измеренная на высоте 2 м над землей.
Td - Температура точки росы - температура, при понижении до которой содержащийся в воздухе водяной пар достигнет насыщения.
f - Относительная влажность воздуха - влажноcть воздуха, измеренная на высоте 2 м над землей.
Te - Эффективная температура - температура, которую ощущает одетый по сезону человек в тени. Характеристика душности погоды. При расчете учитывается влияние влажности воздуха и скорости ветра на теплоощущения человека.
Tes - Эффективная температура на солнце - температура, которую ощущает человек, с поправкой на солнечный нагрев. Характеристика знойности погоды. Зависит от высоты солнца над горизонтом, облачности и скорости ветра. Ночью, в пасмурную погоду, а также при ветре 12 м/с и более поправка равна нулю.
P - Атмосферное давление - приведенное к уровню моря атмосферное давление.
Po - Атмосферное давление - измеренное на уровне метеостанции атмосферное давление.
Tmin - Минимальная температура - минимум температуры воздуха на высоте 2 м над землей.
Tmax - Максимальная температура - максимум температуры воздуха на высоте 2 м над землей.
R - Количество осадков - Количество выпавших осадков за период времени, мм. При наведении курсора мыши на число - период времени, за который выпало указанное количество осадков.
R24 - Количество осадков - Количество выпавших осадков за 24 часа, мм.
S - Снежный покров - Высота снежного покрова, см. При наведении курсора мыши на число - состояние снежного покрова и степень покрытия местности в баллах.